Regional Weather Roundup
Issued by NWS Burlington, VT

Home | Current Version | Previous Version | Text Only | Print | Product List | Glossary On
Versions: 1 2 3 4 5 6 7 8 9 10 11 12 13 14 15 16 17 18 19 20 21 22 23 24 25 26 27
000
ASUS41 KBTV 241710
RWRBTV
VERMONT REGIONAL WEATHER ROUNDUP
NATIONAL WEATHER SERVICE BURLINGTON VT
100 PM EDT FRI OCT 24 2014

NOTE: "FAIR" INDICATES FEW OR NO CLOUDS BELOW 12,000 FEET WITH NO
SIGNIFICANT WEATHER AND/OR OBSTRUCTIONS TO VISIBILITY.

* THESE REPORTS ARE NOT UNDER NWS QUALITY CONTROL AND/OR DO NOT
  REPORT WEATHER SUCH AS PRECIPITATION AND FOG.

VTZ001>019-241800-
_____VERMONT_____


CITY           SKY/WX    TMP DP  RH WIND       PRES   REMARKS
BURLINGTON     CLOUDY    45  40  82 N6        29.84F
MONTPELIER     CLOUDY    42  39  89 NW9       29.81F
MORRISVILLE    CLOUDY    44  39  82 N9        29.82F
ST. JOHNSBURY*   N/A     46  40  79 MISG      29.76F
LYNDONVILLE*   CLOUDY    44  39  82 NW8       29.78F
MIDDLEBURY*    CLOUDY    43  43 100 N12G18    29.82F FOG
RUTLAND*       CLOUDY    43  39  87 NW13G22   29.80F
SPRINGFIELD    CLOUDY    46  40  79 W14       29.76F
HIGHGATE*      CLOUDY    46  38  75 N12       29.84F
NEWPORT*       CLOUDY    42  40  93 N12       29.80S
BENNINGTON     CLOUDY    45  40  82 N8        29.81F
SUTTON*          N/A     41 N/A N/A MISG        N/A

_____LAKE CHAMPLAIN_____


CITY           SKY/WX    TMP DP  RH WIND       PRES   REMARKS
COLCHESTER RF*   N/A     48  39  71 N18         N/A
DIAMOND ISL*     N/A     46  41  81 N15         N/A

$$

NYZ007-026>031-035-052-083-241800-
_____NORTHERN NEW YORK_____


CITY           SKY/WX    TMP DP  RH WIND       PRES   REMARKS
PLATTSBURGH    CLOUDY    50  40  68 N12       29.84F
SARANAC LAKE   CLOUDY    44  40  85 NW5       29.84F
MASSENA        CLOUDY    54  42  64 CALM      29.90F
OGDENSBURG*    MOSUNNY   57  43  58 N5        29.89F
POTSDAM*       CLOUDY    52  46  82 W3        29.90F
WATERTOWN      SUNNY     59  41  51 W8        29.90F
FT DRUM        MOSUNNY   56  40  55 NW6       29.89F
ALBANY         CLOUDY    49  46  90 NE5       29.83F
GLENS FALLS    CLOUDY    46  43  89 E5        29.83F

$$
NHZ002-005-011-241800-
_____NEW HAMPSHIRE_____


CITY           SKY/WX    TMP DP  RH WIND       PRES   REMARKS
LEBANON        CLOUDY    50  40  68 NW8       29.75F
KEENE          CLOUDY    48  37  66 N7        29.75F
MT WASHINGTON  DRZL/FOG  32  32 100 N29         N/A  VSB 1/16
PLYMOUTH       CLOUDY    48  46  90 W10G18    29.72F
WHITEFIELD     CLOUDY    45  42  89 W6        29.75F

$$

_____REGIONAL QUEBEC LOCATIONS_____


CITY           SKY/WX    TMP DP  RH WIND       PRES   REMARKS
MONTREAL       PTSUNNY   52  39  62 NE10      29.87F
QUEBEC CITY    PTSUNNY   48  34  57 NE7       29.84F

_____REGIONAL ONTARIO LOCATIONS_____


CITY           SKY/WX    TMP DP  RH WIND       PRES   REMARKS
OTTAWA         MOSUNNY   57  39  51 W7        29.89F

______KEY______
VSB  - VISIBILITY IN MILES
WCI  - WIND CHILL INDEX
HX   - HEAT INDEX
$$
NNNN



USA.gov is the U.S. government's official web portal to all federal, state and local government web resources and services.